Temperature
19 21 22 23 22 19 20 19 19 20 19 20 19 19 20 20 20 20 20 20 20 20 20 20 19 19 19 18 18 18 18 17 17 17 16 16 16 16 16 16 16 16 16 16
21 21 22 23 22 21 21 20 20 21 20 19 19 20 19 20 20 20 20 21 21 20 20 20 20 19 18 18 18 17 17 17 17 17 16 16 16 16 16 16 16 16 16 15
19 20 22 21 21 21 21 20 20 21 21 18 18 18 19 19 20 20 21 21 21 21 20 20 20 19 18 18 17 17 17 17 17 16 16 16 16 16 16 15 15 15 15 15
17 20 21 20 20 21 20 20 19 19 18 18 18 19 19 20 20 20 21 21 21 21 20 20 19 19 18 18 17 17 17 17 16 16 16 16 15 15 15 15 15 15 15 15
15 18 20 21 20 19 20 20 19 18 17 17 18 18 18 20 20 21 21 21 21 20 20 19 19 18 18 17 17 17 16 16 16 16 15 15 15 15 15 15 15 15 14 14
15 18 19 20 20 19 20 20 18 17 16 17 18 18 18 19 19 19 20 20 19 19 19 19 18 18 17 17 17 16 16 16 15 15 15 15 15 14 14 14 14 14 14 14
15 17 18 18 17 19 20 20 18 17 17 17 17 18 19 19 19 19 19 19 19 18 18 18 17 17 17 16 16 16 15 15 15 15 15 14 14 14 14 14 14 13 13 13
14 17 17 17 17 18 18 18 18 18 18 18 18 18 18 18 18 18 18 18 18 18 17 17 17 16 16 16 16 15 15 15 15 14 14 14 14 14 13 13 13 13 13 12
13 14 15 15 15 16 17 17 17 18 18 18 18 17 17 17 17 17 18 18 17 17 17 16 16 16 16 15 15 15 14 14 14 14 13 13 13 13 13 13 12 12 12 12
13 13 14 15 15 16 17 18 18 18 18 18 18 17 17 17 17 17 17 17 17 16 16 16 15 15 15 14 14 14 14 13 13 13 13 13 12 12 12 12 12 12 11 11
13 13 14 15 15 16 17 17 18 17 17 17 18 17 16 16 16 16 16 16 16 16 16 15 14 14 14 14 13 13 13 13 12 12 12 12 11 11 11 11 11 11 11 11
13 14 13 14 15 16 16 17 17 17 16 16 16 16 15 15 15 15 15 15 15 14 14 14 14 13 13 13 13 13 12 12 12 11 11 11 11 10 10 10 10 10 10 10
15 15 15 15 15 16 16 16 16 16 16 16 15 15 15 15 15 15 14 14 14 14 13 13 13 13 12 12 12 12 12 11 11 11 11 10 10 10 10 9 9 9 9 8
15 15 15 15 15 15 15 15 15 15 15 15 15 15 15 14 14 14 13 13 13 13 13 13 12 12 12 12 11 11 11 11 11 10 10 10 10 10 9 9 9 8 8 8
15 15 15 15 15 15 15 15 15 15 14 14 14 14 14 13 13 13 13 12 12 12 12 12 12 12 11 11 11 11 11 10 10 10 10 9 9 9 9 8 8 7 7 7
14 14 15 14 14 14 14 14 15 14 14 13 13 13 13 12 12 12 12 12 12 11 11 11 11 11 11 11 11 10 10 10 10 9 9 9 8 8 8 8 7 7 7 7
14 13 14 14 14 14 14 14 14 14 13 13 13 12 12 12 12 11 11 11 11 11 11 11 11 10 10 10 10 10 10 9 9 9 9 8 8 8 8 7 7 7 7 6
14 14 14 14 14 14 14 14 13 13 13 13 12 12 12 12 11 11 11 11 11 10 10 10 10 10 10 10 10 9 9 9 9 8 8 8 8 7 7 7 7 7 6 6
14 14 14 14 14 14 14 13 13 12 12 12 12 12 11 11 11 11 10 10 10 10 10 10 10 9 9 9 9 9 9 9 8 8 8 8 7 7 7 7 7 6 6 6
13 13 13 13 13 13 13 12 12 12 12 12 11 11 11 11 10 10 10 10 10 10 10 9 9 9 9 9 9 9 8 8 8 8 8 8 7 7 7 7 6 6 6 6
12 12 12 12 12 12 12 12 12 11 11 11 11 11 10 10 10 10 10 10 9 9 9 9 9 9 9 9 9 8 8 8 8 8 8 7 7 7 7 7 6 6 6 6
11 12 12 12 11 11 11 11 11 11 11 11 10 10 10 10 10 10 9 9 9 9 9 9 9 9 9 9 8 8 8 8 8 8 8 8 7 7 7 7 6 6 6 6
11 11 11 11 11 11 11 11 11 11 10 10 10 10 10 10 9 9 9 9 9 9 9 9 9 9 9 9 8 8 8 8 8 8 8 7 7 7 7 7 6 6 6 6
10 10 10 10 10 10 10 10 10 10 10 10 10 10 9 9 9 9 9 9 9 9 9 9 9 9 9 9 9 8 8 8 8 8 8 7 7 7 7 7 6 6 6 6
10 10 10 10 10 10 10 9 9 9 9 9 9 9 9 9 9 9 9 9 9 9 9 9 9 9 9 9 9 8 8 8 8 8 7 7 7 7 7 7 6 6 6 6
10 10 9 9 10 9 9 9 9 9 9 9 9 9 9 9 9 9 9 9 9 9 9 9 9 9 8 8 8 8 8 8 8 8 7 7 7 7 7 6 6 6 6 6
9 9 9 9 9 9 9 9 9 9 9 9 9 9 9 9 8 9 8 9 9 9 8 8 8 8 8 8 8 8 8 8 8 8 7 7 7 7 7 6 6 6 6 6
Wind_Speed
6 5 5 5 6 9 8 9 10 10 10 11 10 8 6 7 8 8 8 8 8 7 6 6 5 5 5 5 5 5 5 4 3 2 2 2 2 2 2 2 2 2 2 1
2 3 5 3 4 8 6 6 6 5 8 8 3 4 5 8 9 9 9 9 8 7 7 6 6 6 5 4 4 5 5 3 3 3 3 2 2 2 2 2 2 2 2 1
3 2 5 3 4 6 5 4 7 8 9 3 5 8 10 10 10 10 10 9 9 8 7 6 5 5 5 4 5 5 4 3 3 3 3 2 2 3 2 2 2 2 2 2
2 4 5 7 3 3 4 2 4 4 4 6 6 5 3 5 9 9 9 9 9 8 7 5 5 5 5 5 5 5 4 4 3 3 3 2 3 2 2 2 2 2 2 2
4 4 2 3 0 3 4 2 3 4 3 4 6 5 2 1 5 6 6 6 6 7 6 6 7 6 7 6 5 5 4 3 3 3 3 3 2 2 2 3 3 3 3 3
5 5 6 6 3 1 4 3 3 4 6 7 6 5 4 3 6 7 7 7 7 7 8 7 6 7 8 7 6 5 3 4 4 4 4 3 3 3 3 4 4 4 4 4
4 3 6 5 5 0 5 7 3 5 6 8 4 4 5 8 8 9 9 9 9 9 8 6 6 7 7 7 6 5 5 5 5 5 5 4 4 4 4 4 5 5 5 5
5 4 6 4 2 4 5 2 2 4 5 6 7 8 10 10 10 11 10 9 9 9 8 6 6 6 7 6 5 6 6 6 6 6 5 5 5 5 5 5 5 5 5 5
6 6 4 3 3 4 2 2 2 4 5 9 10 9 10 10 10 9 9 9 8 9 8 6 6 6 6 4 5 7 7 7 6 7 6 6 6 5 5 4 4 4 4 4
1 4 4 4 4 3 1 1 2 5 8 9 10 10 11 10 9 9 8 8 8 9 9 7 6 6 5 5 6 7 7 6 6 7 7 7 6 5 5 4 4 5 5 5
2 4 4 4 4 3 3 5 7 7 6 7 10 10 10 9 9 8 7 6 7 8 8 8 7 7 6 5 6 8 7 7 6 6 7 7 8 7 6 5 4 5 4 4
5 5 3 3 3 2 4 5 6 8 7 7 8 9 9 8 8 8 8 7 8 8 8 8 7 7 6 5 6 8 7 6 6 6 6 6 8 10 16 13 15 14 10 8
4 3 3 2 2 2 4 6 7 7 8 8 7 9 10 9 8 8 8 8 8 8 8 8 8 7 6 5 6 7 7 7 6 6 6 6 7 8 8 11 16 16 14 13
4 3 1 1 1 3 6 8 9 9 8 8 8 9 10 9 9 9 8 8 8 9 8 8 8 7 5 6 7 8 8 8 7 6 6 6 7 7 7 8 7 7 10 13
2 3 4 3 4 5 6 8 10 9 9 9 8 9 10 10 10 9 8 9 10 9 8 8 8 6 5 7 8 8 8 6 6 7 7 7 7 8 8 8 8 6 6 7
2 3 4 5 4 4 5 7 8 8 8 9 9 9 9 10 10 10 9 9 9 9 7 7 7 6 6 7 8 7 7 11 9 7 7 7 7 8 7 7 7 6 6 4
5 4 5 5 6 5 5 5 7 8 8 9 10 10 11 11 11 10 9 8 9 8 7 7 7 6 6 7 8 7 7 8 11 8 7 7 7 7 7 7 6 6 4 4
5 6 6 7 7 7 6 7 7 8 9 9 11 12 11 11 11 10 9 9 10 9 7 6 7 7 7 7 7 7 7 7 7 7 7 7 6 6 6 6 6 6 4 5
4 5 5 5 6 7 8 8 8 8 9 10 11 11 10 10 10 10 9 10 9 8 5 5 9 8 8 8 9 7 8 8 7 7 7 8 7 6 5 5 5 5 4 4
5 5 6 6 6 7 8 9 9 9 9 11 12 12 11 10 10 10 10 8 5 4 6 7 8 7 7 8 9 7 8 8 8 7 6 6 6 5 5 5 4 4 4 3
7 7 8 8 7 7 8 10 10 10 10 11 12 12 11 10 9 9 9 7 4 5 7 8 6 6 6 7 8 7 7 6 6 6 6 5 5 5 4 4 4 4 3 3
7 8 8 8 9 8 7 8 10 11 11 11 11 12 12 11 9 8 6 5 5 7 6 5 5 7 8 8 6 6 6 6 5 5 5 5 5 5 4 4 4 3 3 3
7 8 8 9 10 10 9 9 10 10 11 11 11 11 11 8 7 7 6 4 5 7 6 5 7 10 10 6 5 5 6 5 5 5 5 5 4 4 4 4 3 3 3 3
8 8 9 10 11 12 11 9 9 9 10 10 9 10 10 8 5 4 5 7 8 8 6 7 10 10 8 5 5 5 5 5 4 4 4 4 4 4 4 4 3 3 3 3
9 10 10 11 11 9 10 11 11 10 10 8 9 8 6 5 6 5 6 7 9 9 6 7 10 9 6 5 5 5 4 4 5 5 4 4 4 3 3 3 3 3 3 3
9 8 8 8 8 8 8 9 8 7 8 8 6 6 6 6 7 7 6 7 8 8 6 5 5 6 5 4 4 4 4 4 5 4 4 4 4 4 3 4 4 4 4 4
9 8 8 8 7 7 7 8 8 7 7 8 7 5 6 6 6 6 7 6 6 5 5 4 4 4 4 4 3 3 3 3 4 4 4 4 4 4 4 5 4 5 5 5
Wind_Direction
211 206 176 184 174 166 173 178 180 219 223 243 229 215 196 173 165 155 152 153 156 154 151 149 150 152 156 156 150 148 143 142 152 145 129 115 109 122 127 138 157 150 147 147
213 218 190 204 197 175 185 178 200 213 244 249 211 156 165 172 169 167 165 161 155 150 149 154 160 159 154 152 152 144 142 145 137 123 118 114 110 113 111 114 118 115 124 130
215 257 124 216 218 181 178 188 176 202 231 188 170 181 185 181 176 175 167 159 157 158 158 156 154 154 153 151 139 133 132 130 128 128 127 129 121 109 113 118 112 106 105 107
128 115 184 239 264 170 157 193 209 222 232 193 188 169 158 168 173 173 168 163 160 154 146 135 125 128 128 123 125 126 123 121 120 122 122 110 104 107 112 104 102 99 95 99
121 152 241 289 259 142 153 242 219 200 196 140 118 88 44 168 161 164 159 146 140 138 134 126 123 129 122 117 115 113 113 116 119 122 118 111 111 111 106 101 92 84 78 86
122 141 206 234 279 250 131 271 235 186 175 156 132 149 215 144 123 118 110 111 113 111 106 108 114 121 118 115 113 110 103 104 107 108 110 110 108 102 95 97 97 89 76 69
141 174 248 261 295 249 158 233 222 185 175 162 173 179 139 122 112 110 106 106 109 108 105 104 108 114 114 112 107 100 98 97 94 92 95 92 88 87 93 94 91 88 82 70
143 163 236 310 1 173 220 264 168 165 159 137 118 110 111 112 113 111 108 105 107 106 98 92 98 110 112 110 105 100 99 94 89 84 85 85 87 82 86 94 90 86 85 72
188 207 256 295 271 285 248 196 175 151 139 131 125 122 119 115 112 108 110 109 107 109 101 87 85 102 111 103 102 102 97 92 89 84 79 80 85 84 83 85 92 88 88 81
252 275 294 315 324 334 327 187 143 136 135 135 132 131 126 123 120 116 112 115 115 114 110 96 81 79 93 101 102 103 101 97 95 93 85 75 70 70 81 84 92 95 98 94
258 279 322 344 357 353 44 83 103 107 112 128 130 130 129 128 123 118 114 110 113 114 111 103 93 87 87 96 105 105 101 98 95 93 95 83 71 58 66 58 81 101 99 102
215 227 200 257 320 18 84 90 103 105 97 99 114 120 117 113 111 112 112 110 109 105 106 103 99 92 85 91 105 111 108 103 101 101 100 100 96 78 58 66 66 67 74 89
207 209 196 218 18 59 95 95 94 100 111 111 109 116 115 112 109 110 109 108 111 112 111 106 100 93 85 88 96 103 112 113 109 107 105 103 102 103 93 68 62 61 66 78
184 158 150 125 112 105 106 102 97 92 94 106 112 111 111 110 110 110 110 108 108 107 104 102 99 92 87 95 99 99 102 105 107 104 102 100 99 98 100 100 88 64 52 65
220 191 173 138 112 116 116 112 107 105 104 101 107 114 118 119 117 113 109 110 108 105 103 103 101 94 90 102 107 107 107 108 105 102 99 99 99 97 96 95 93 87 79 64
173 142 138 129 131 130 126 128 128 129 124 119 118 119 119 117 114 110 108 112 113 110 107 105 103 101 103 108 109 106 107 115 113 108 106 105 104 104 102 101 98 95 92 86
156 168 167 167 168 159 154 152 146 139 133 130 130 126 121 117 112 108 105 101 101 101 102 105 104 103 105 109 111 114 114 117 115 111 110 113 113 112 112 110 108 102 92 86
196 188 178 174 171 161 145 135 134 135 136 134 131 128 128 128 125 121 115 109 101 92 88 98 106 107 104 105 105 107 110 110 110 112 112 110 110 111 113 112 112 108 98 88
166 159 156 162 164 155 143 138 136 133 133 133 132 129 127 125 124 122 119 114 112 109 102 104 110 105 106 111 111 106 110 110 107 105 108 110 109 110 115 117 115 114 114 109
143 140 141 138 136 138 136 134 132 130 131 132 127 124 123 123 124 122 116 109 112 124 126 117 110 108 111 115 112 111 114 117 118 116 114 117 119 120 120 122 121 121 120 120
140 136 135 132 129 131 135 134 133 132 131 131 131 131 129 125 124 122 120 113 99 107 114 115 115 116 115 119 115 116 118 121 124 126 127 127 127 127 128 128 128 130 132 134
135 133 133 131 128 125 125 126 129 130 128 127 126 126 125 123 119 109 101 118 127 120 114 114 118 123 126 122 119 123 125 127 128 131 133 135 138 140 140 139 139 141 145 150
126 127 127 127 126 122 116 117 121 125 127 129 130 130 128 125 125 125 121 122 127 122 116 119 129 129 125 120 122 128 132 136 140 143 146 147 149 150 151 153 157 161 164 167
120 119 119 119 121 119 117 114 112 112 113 114 118 123 124 119 103 93 117 126 125 120 116 128 133 132 126 123 126 130 134 136 139 142 144 146 149 152 157 163 172 179 183 186
118 118 119 121 121 120 119 115 109 107 106 108 107 105 107 115 122 123 118 121 121 115 111 121 127 126 123 124 127 131 136 141 144 146 148 152 158 165 173 182 191 197 200 205
116 117 118 117 119 120 121 119 116 116 117 114 105 101 102 102 108 111 112 115 116 116 116 117 121 120 124 128 131 136 139 141 146 151 159 166 174 180 187 195 202 209 215 220
107 109 109 106 103 109 115 118 120 122 125 125 118 114 115 113 112 113 113 113 114 113 113 112 116 121 124 125 128 134 141 147 154 164 174 180 186 193 201 206 213 218 223 229
Height
1487 1484 1484 1484 1487 1494 1497 1503 1511 1506 1504 1491 1486 1486 1487 1490 1493 1496 1499 1502 1506 1509 1512 1515 1518 1520 1522 1524 1525 1527 1528 1529 1530 1532 1533 1533 1534 1535 1536 1537 1537 1538 1539 1540
1484 1482 1482 1484 1483 1487 1489 1492 1495 1494 1494 1482 1482 1485 1487 1489 1491 1494 1497 1500 1504 1508 1511 1513 1516 1519 1521 1523 1525 1526 1527 1528 1530 1531 1532 1532 1533 1533 1534 1535 1536 1537 1537 1538
1494 1484 1483 1493 1484 1484 1485 1485 1487 1491 1485 1480 1481 1482 1483 1485 1488 1491 1494 1498 1502 1506 1509 1512 1516 1518 1520 1523 1524 1525 1526 1528 1529 1530 1531 1532 1532 1532 1533 1534 1535 1535 1536 1536
1498 1491 1502 1489 1477 1477 1480 1481 1480 1480 1478 1478 1477 1479 1482 1484 1487 1490 1493 1497 1501 1505 1509 1512 1515 1518 1520 1522 1524 1525 1526 1527 1528 1529 1530 1531 1531 1531 1532 1532 1533 1534 1534 1535
1502 1501 1495 1483 1477 1478 1481 1481 1478 1478 1477 1478 1479 1481 1483 1485 1487 1490 1494 1497 1501 1505 1509 1511 1514 1517 1519 1520 1523 1524 1525 1527 1528 1528 1529 1530 1530 1530 1531 1531 1532 1532 1532 1533
1499 1499 1502 1485 1474 1473 1477 1483 1476 1475 1476 1477 1479 1485 1485 1484 1487 1490 1494 1498 1502 1506 1509 1511 1514 1516 1517 1519 1521 1523 1525 1526 1527 1527 1528 1529 1529 1529 1530 1530 1530 1531 1531 1532
1496 1497 1491 1478 1474 1474 1487 1483 1473 1473 1474 1476 1477 1479 1481 1483 1487 1491 1495 1499 1502 1505 1508 1511 1514 1516 1517 1518 1519 1521 1524 1525 1526 1527 1528 1528 1528 1529 1529 1529 1530 1530 1530 1531
1497 1497 1494 1475 1474 1477 1476 1470 1470 1471 1473 1475 1477 1479 1481 1484 1487 1491 1495 1499 1502 1505 1508 1511 1513 1516 1517 1518 1519 1520 1522 1524 1525 1526 1527 1528 1528 1528 1528 1529 1529 1530 1530 1530
1489 1488 1479 1475 1475 1473 1471 1470 1470 1471 1474 1476 1478 1480 1483 1486 1489 1493 1496 1500 1503 1505 1508 1511 1513 1515 1517 1518 1519 1520 1522 1523 1524 1526 1527 1527 1527 1528 1528 1528 1529 1529 1530 1530
1484 1479 1476 1475 1473 1472 1471 1470 1471 1472 1474 1476 1478 1481 1484 1488 1491 1495 1498 1501 1503 1506 1508 1511 1513 1515 1517 1518 1519 1520 1521 1523 1524 1525 1526 1527 1527 1528 1528 1529 1529 1530 1531 1531
1482 1478 1475 1474 1474 1472 1471 1471 1473 1474 1477 1478 1480 1483 1486 1489 1492 1495 1499 1502 1504 1506 1508 1510 1513 1515 1517 1518 1520 1520 1521 1523 1524 1525 1526 1527 1528 1529 1529 1530 1531 1532 1532 1533
1480 1476 1476 1475 1474 1474 1473 1473 1475 1477 1479 1481 1483 1485 1488 1491 1494 1497 1500 1503 1505 1507 1509 1511 1513 1515 1517 1518 1519 1520 1521 1523 1524 1526 1527 1528 1529 1530 1531 1532 1533 1533 1534 1535
1474 1474 1474 1474 1474 1475 1475 1475 1477 1479 1481 1483 1485 1487 1490 1493 1496 1499 1501 1504 1506 1508 1510 1512 1514 1515 1517 1518 1519 1521 1522 1523 1525 1527 1528 1529 1530 1531 1532 1534 1535 1536 1536 1537
1472 1473 1473 1474 1475 1476 1476 1477 1478 1481 1483 1485 1487 1489 1492 1495 1498 1500 1503 1505 1508 1509 1511 1513 1514 1516 1518 1519 1520 1521 1523 1524 1526 1528 1529 1531 1532 1533 1535 1536 1537 1538 1539 1540
1471 1472 1472 1473 1475 1476 1477 1478 1479 1482 1484 1486 1489 1491 1494 1497 1499 1502 1505 1507 1509 1511 1513 1514 1515 1517 1519 1520 1522 1523 1525 1526 1528 1530 1531 1533 1534 1536 1537 1538 1540 1541 1542 1543
1469 1470 1471 1472 1474 1476 1478 1479 1480 1483 1485 1487 1490 1493 1496 1498 1501 1504 1506 1509 1510 1512 1514 1516 1517 1519 1521 1522 1523 1525 1527 1528 1530 1532 1533 1535 1537 1538 1540 1541 1543 1544 1545 1547
1467 1468 1470 1472 1474 1476 1478 1480 1481 1483 1486 1489 1492 1494 1497 1500 1503 1505 1508 1511 1513 1515 1517 1519 1520 1521 1523 1524 1526 1527 1529 1531 1532 1534 1536 1538 1540 1541 1543 1544 1546 1547 1548 1550
1465 1467 1469 1471 1473 1475 1477 1480 1482 1485 1487 1490 1493 1495 1498 1501 1504 1507 1510 1512 1515 1517 1519 1521 1522 1524 1525 1527 1528 1530 1532 1534 1535 1537 1539 1541 1542 1544 1546 1547 1549 1550 1551 1552
1463 1465 1468 1470 1472 1474 1477 1480 1483 1486 1489 1491 1494 1496 1500 1503 1506 1509 1512 1514 1517 1519 1522 1523 1525 1527 1528 1530 1532 1533 1535 1536 1538 1540 1542 1544 1546 1547 1549 1550 1552 1553 1554 1555
1462 1464 1467 1469 1472 1475 1477 1480 1483 1487 1489 1492 1495 1498 1501 1505 1508 1511 1514 1517 1519 1522 1524 1526 1528 1530 1532 1533 1535 1537 1538 1540 1541 1543 1545 1547 1549 1550 1552 1553 1555 1556 1557 1557
1461 1463 1466 1469 1472 1475 1477 1480 1484 1487 1490 1494 1497 1500 1503 1506 1510 1513 1516 1519 1522 1525 1527 1529 1531 1533 1535 1537 1539 1540 1542 1544 1545 1547 1549 1550 1552 1553 1554 1556 1557 1558 1559 1559
1460 1463 1466 1469 1472 1475 1478 1481 1485 1488 1492 1495 1499 1502 1505 1509 1512 1516 1519 1522 1525 1527 1530 1532 1534 1536 1538 1540 1542 1543 1545 1547 1548 1550 1551 1553 1554 1555 1556 1557 1558 1559 1560 1561
1461 1464 1466 1469 1473 1476 1480 1483 1487 1490 1494 1497 1501 1504 1508 1511 1515 1518 1521 1525 1527 1530 1532 1535 1537 1539 1541 1543 1544 1546 1548 1549 1551 1552 1553 1554 1556 1557 1558 1559 1560 1561 1561 1562
1462 1465 1468 1471 1475 1478 1481 1485 1489 1493 1497 1501 1504 1508 1511 1514 1518 1521 1524 1527 1530 1532 1535 1537 1540 1542 1543 1545 1547 1548 1550 1551 1552 1554 1555 1556 1557 1558 1559 1560 1561 1561 1562 1562
1465 1468 1471 1474 1477 1480 1484 1488 1492 1496 1500 1504 1508 1511 1515 1518 1521 1524 1527 1529 1532 1535 1537 1539 1542 1544 1545 1547 1549 1550 1551 1553 1554 1555 1556 1557 1558 1559 1560 1560 1561 1561 1562 1562
1468 1471 1474 1477 1481 1484 1488 1491 1495 1499 1503 1507 1511 1515 1518 1521 1524 1527 1529 1532 1535 1537 1539 1541 1543 1545 1547 1549 1550 1552 1553 1554 1555 1556 1557 1558 1559 1559 1560 1560 1561 1561 1561 1561
1472 1475 1478 1482 1485 1489 1492 1496 1500 1504 1507 1511 1514 1518 1521 1524 1527 1530 1532 1535 1537 1539 1542 1543 1545 1547 1549 1550 1552 1553 1554 1555 1556 1557 1558 1558 1559 1559 1560 1560 1560 1560 1560 1560